Вернуться в каталог

STARLINK-35009

АктивенСвязьSSO
NORAD 65449·PAYLOAD·🇺🇸 United States

Запущен Sep 3, 2025 с Vandenberg Space Force Base

Loading…

Ближайшие Пролёты (ближайшие 24 часа)

TLE

СвежийSource: CelesTrak SupGP

Эпоха: Sep 14, 2026, 21:25 UTC

1 65449C 25194R   26257.89284722  .00061045  00000+0  18957-2 0  2577
2 65449  97.2845 107.5693 0001678  91.8645 320.7129 15.33395057    17

Отслеживайте STARLINK-35009 в реальном времени с AllMySat

Download on the App Store